User: anonymous   Login
Location: Newark
(48.2308°N, 120.8549°W)
Time: 03:30:56
(UTC+00:00)
Language:

A-11 Canister half - Orbit

View from above orbital plane
View from above orbital plane
View from above satellite
View from above satellite

Ground track
Ground track

The orbit data is extracted from the following two-line orbital elements,

1    51U 60009C   20157.90783727 -.00000040 +00000-0 +44324-3 0  9994
2    51 047.2147 023.1393 0106464 127.9174 233.1295 12.18273939662684
Epoch (UTC): 05 June 2020 21:47:17
Eccentricity: 0.0106464
inclination: 47.2147°
perigee height: 1515 km
apogee height: 1685 km
right ascension of ascending node: 23.1393°
argument of perigee: 127.9174°
revolutions per day: 12.18273939
mean anomaly at epoch: 233.1295°
orbit number at epoch: 66268

The dashed part of the orbit path shows where the satellite is in the earth's shadow,  

DLR